SB KEPS @ AMSAT $ORB08227.O Orbital Elements 08227.OSCAR
HR AMSAT ORBITAL ELEMENTS FOR OSCAR SATELLITES FROM WA5QGD FORT WORTH,TX August 14, 2008 Send Subscribe/unsubscribe to KEPS at http://www.amsat.org/mailman/listinfo/keps BID: ORB08227.O TO ALL RADIO AMATEURS BT
Satellite: AO-07 Catalog number: 07530 Epoch time: 08226.67446543 Element set: 0252 Inclination: 101.4629 deg RA of node: 256.2418 deg Eccentricity: 0.0012084 Arg of perigee: 148.6518 deg Mean anomaly: 211.5271 deg Mean motion: 12.53573855 rev/day Decay rate: -2.7e-07 rev/day^2 Epoch rev: 54418 Checksum: 293
Satellite: AO-10 Catalog number: 14129 Epoch time: 08225.05533752 Element set: 0543 Inclination: 026.0194 deg RA of node: 201.0008 deg Eccentricity: 0.5970800 Arg of perigee: 147.8941 deg Mean anomaly: 269.2176 deg Mean motion: 02.05869232 rev/day Decay rate: -1.23e-06 rev/day^2 Epoch rev: 18925 Checksum: 285
Satellite: UO-11 Catalog number: 14781 Epoch time: 08226.93675454 Element set: 0745 Inclination: 098.1507 deg RA of node: 261.8221 deg Eccentricity: 0.0008059 Arg of perigee: 245.4952 deg Mean anomaly: 114.5424 deg Mean motion: 14.79657767 rev/day Decay rate: 9.3e-07 rev/day^2 Epoch rev: 31239 Checksum: 326
Satellite: RS-15 Catalog number: 23439 Epoch time: 08226.92945839 Element set: 0153 Inclination: 064.8156 deg RA of node: 041.6724 deg Eccentricity: 0.0147044 Arg of perigee: 111.7783 deg Mean anomaly: 249.8860 deg Mean motion: 11.27552823 rev/day Decay rate: -3.9e-07 rev/day^2 Epoch rev: 56147 Checksum: 325
Satellite: FO-29 Catalog number: 24278 Epoch time: 08226.80558377 Element set: 0859 Inclination: 098.5820 deg RA of node: 135.5463 deg Eccentricity: 0.0351407 Arg of perigee: 066.4539 deg Mean anomaly: 297.3101 deg Mean motion: 13.52939341 rev/day Decay rate: -2.7e-07 rev/day^2 Epoch rev: 59218 Checksum: 338
Satellite: SO-33 Catalog number: 25509 Epoch time: 08226.71677214 Element set: 262 Inclination: 031.4330 deg RA of node: 351.0648 deg Eccentricity: 0.0354933 Arg of perigee: 170.3189 deg Mean anomaly: 190.4800 deg Mean motion: 14.28221579 rev/day Decay rate: 3.05e-06 rev/day^2 Epoch rev: 51184 Checksum: 287
Satellite: AO-40 Catalog number: 26609 Epoch time: 08226.12994095 Element set: 102 Inclination: 007.6761 deg RA of node: 066.8940 deg Eccentricity: 0.7928342 Arg of perigee: 111.5291 deg Mean anomaly: 343.0909 deg Mean motion: 01.25585828 rev/day Decay rate: -3.27e-06 rev/day^2 Epoch rev: 3575 Checksum: 317
Satellite: VO-52 Catalog number: 28650 Epoch time: 08226.68124158 Element set: 0005 Inclination: 097.7857 deg RA of node: 291.7019 deg Eccentricity: 0.0026197 Arg of perigee: 315.0740 deg Mean anomaly: 044.8375 deg Mean motion: 14.81488789 rev/day Decay rate: 3.9e-07 rev/day^2 Epoch rev: 17711 Checksum: 332
Satellite: PO-63 Catalog number: 29712 Epoch time: 08227.83251513 Element set: 707 Inclination: 097.8716 deg RA of node: 284.9082 deg Eccentricity: 0.0013940 Arg of perigee: 186.4096 deg Mean anomaly: 173.6930 deg Mean motion: 14.80237341 rev/day Decay rate: 4.03e-06 rev/day^2 Epoch rev: 8614 Checksum: 311
/EX SB KEPS @ AMSAT $ORB08227.D Orbital Elements 08227.MICROS
HR AMSAT ORBITAL ELEMENTS FOR THE MICROSATS FROM WA5QGD FORT WORTH,TX August 14, 2008 Send Subscribe/unsubscribe to KEPS at http://www.amsat.org/mailman/listinfo/keps BID: ORB08227.D TO ALL RADIO AMATEURS BT
Satellite: AO-16 Catalog number: 20439 Epoch time: 08226.93362359 Element set: 0395 Inclination: 098.2347 deg RA of node: 204.0577 deg Eccentricity: 0.0011407 Arg of perigee: 010.1189 deg Mean anomaly: 350.0225 deg Mean motion: 14.31800192 rev/day Decay rate: 4.0e-08 rev/day^2 Epoch rev: 96918 Checksum: 286
Satellite: LO-19 Catalog number: 20442 Epoch time: 08226.97135997 Element set: 0320 Inclination: 098.2054 deg RA of node: 212.4532 deg Eccentricity: 0.0012249 Arg of perigee: 007.3111 deg Mean anomaly: 352.8246 deg Mean motion: 14.32038148 rev/day Decay rate: -1.6e-07 rev/day^2 Epoch rev: 96934 Checksum: 287
Satellite: AO-27 Catalog number: 22825 Epoch time: 08227.79682192 Element set: 40 Inclination: 098.3880 deg RA of node: 185.6342 deg Eccentricity: 0.0009360 Arg of perigee: 088.2912 deg Mean anomaly: 271.9343 deg Mean motion: 14.29244109 rev/day Decay rate: -1.27e-06 rev/day^2 Epoch rev: 77614 Checksum: 319
Satellite: IO-26 Catalog number: 22826 Epoch time: 08226.86073968 Element set: 746 Inclination: 098.3812 deg RA of node: 185.6156 deg Eccentricity: 0.0009932 Arg of perigee: 086.5873 deg Mean anomaly: 273.6453 deg Mean motion: 14.29493807 rev/day Decay rate: -1.1e-07 rev/day^2 Epoch rev: 77610 Checksum: 345
Satellite: PO-28 Catalog number: 22829 Epoch time: 08226.95893770 Element set: 0014 Inclination: 098.3687 deg RA of node: 186.8043 deg Eccentricity: 0.0010659 Arg of perigee: 062.2436 deg Mean anomaly: 297.9818 deg Mean motion: 14.30195169 rev/day Decay rate: 7.9e-07 rev/day^2 Epoch rev: 77638 Checksum: 360
Satellite: GO-32 Catalog number: 25397 Epoch time: 08226.62167904 Element set: 0672 Inclination: 098.3618 deg RA of node: 258.9379 deg Eccentricity: 0.0002215 Arg of perigee: 083.6375 deg Mean anomaly: 276.5052 deg Mean motion: 14.23147402 rev/day Decay rate: 1.22e-06 rev/day^2 Epoch rev: 52438 Checksum: 311
Satellite: NO-44 Catalog number: 26931 Epoch time: 08226.79611317 Element set: 951 Inclination: 067.0505 deg RA of node: 136.2482 deg Eccentricity: 0.0007335 Arg of perigee: 265.0565 deg Mean anomaly: 094.9688 deg Mean motion: 14.29529503 rev/day Decay rate: -1.97e-06 rev/day^2 Epoch rev: 35864 Checksum: 331
Satellite: SO-50 Catalog number: 27607 Epoch time: 08227.52649401 Element set: 673 Inclination: 064.5572 deg RA of node: 236.4594 deg Eccentricity: 0.0086475 Arg of perigee: 268.1375 deg Mean anomaly: 090.9950 deg Mean motion: 14.71373621 rev/day Decay rate: -4.0e-08 rev/day^2 Epoch rev: 30355 Checksum: 317
Satellite: CO-55 Catalog number: 27844 Epoch time: 08226.62839810 Element set: 372 Inclination: 098.7162 deg RA of node: 234.0986 deg Eccentricity: 0.0009391 Arg of perigee: 316.9024 deg Mean anomaly: 043.1420 deg Mean motion: 14.20591417 rev/day Decay rate: 1.2e-07 rev/day^2 Epoch rev: 26559 Checksum: 303
Satellite: CO-57 Catalog number: 27848 Epoch time: 08226.56377943 Element set: 322 Inclination: 098.7167 deg RA of node: 233.1200 deg Eccentricity: 0.0009599 Arg of perigee: 320.5463 deg Mean anomaly: 039.5028 deg Mean motion: 14.20399745 rev/day Decay rate: -2.0e-08 rev/day^2 Epoch rev: 26555 Checksum: 323
Satellite: AO-51 Catalog number: 28375 Epoch time: 08226.97455235 Element set: 0174 Inclination: 098.0687 deg RA of node: 248.2886 deg Eccentricity: 0.0084547 Arg of perigee: 338.3033 deg Mean anomaly: 021.4584 deg Mean motion: 14.40615363 rev/day Decay rate: -9.0e-08 rev/day^2 Epoch rev: 21672 Checksum: 325
Satellite: CO-56 Catalog number: 28941 Epoch time: 08227.63841835 Element set: 287 Inclination: 098.1119 deg RA of node: 346.4624 deg Eccentricity: 0.0159081 Arg of perigee: 187.9803 deg Mean anomaly: 171.8918 deg Mean motion: 15.59187893 rev/day Decay rate: 3.0157e-04 rev/day^2 Epoch rev: 13914 Checksum: 360
Satellite: CP3 Catalog number: 31128 Epoch time: 08227.77361702 Element set: 406 Inclination: 098.0351 deg RA of node: 288.7239 deg Eccentricity: 0.0103791 Arg of perigee: 153.1628 deg Mean anomaly: 207.4995 deg Mean motion: 14.51967873 rev/day Decay rate: -4.6e-07 rev/day^2 Epoch rev: 7043 Checksum: 314
Satellite: CP4 Catalog number: 31132 Epoch time: 08227.88437958 Element set: 387 Inclination: 098.0388 deg RA of node: 291.2712 deg Eccentricity: 0.0087056 Arg of perigee: 145.5678 deg Mean anomaly: 215.1202 deg Mean motion: 14.55135704 rev/day Decay rate: 4.5e-07 rev/day^2 Epoch rev: 7048 Checksum: 311
/EX SB KEPS @ AMSAT $ORB08227.W Orbital Elements 08227.WEATHER
HR AMSAT ORBITAL ELEMENTS FOR WEATHER SATELLITES FROM WA5QGD FORT WORTH,TX August 14, 2008 Send Subscribe/unsubscribe to KEPS at http://www.amsat.org/mailman/listinfo/keps BID: ORB08227.W TO ALL RADIO AMATEURS BT
Satellite: NOAA-10 Catalog number: 16969 Epoch time: 08227.12648450 Element set: 246 Inclination: 098.7215 deg RA of node: 248.9749 deg Eccentricity: 0.0012620 Arg of perigee: 016.5451 deg Mean anomaly: 343.6139 deg Mean motion: 14.27365025 rev/day Decay rate: -1.32e-06 rev/day^2 Epoch rev: 13970 Checksum: 302
Satellite: NOAA-11 Catalog number: 19531 Epoch time: 08227.29720347 Element set: 279 Inclination: 098.7969 deg RA of node: 315.8111 deg Eccentricity: 0.0010778 Arg of perigee: 262.3444 deg Mean anomaly: 097.6526 deg Mean motion: 14.14875440 rev/day Decay rate: 2.03e-06 rev/day^2 Epoch rev: 2612 Checksum: 307
Satellite: NOAA-12 Catalog number: 21263 Epoch time: 08227.52862040 Element set: 793 Inclination: 098.7690 deg RA of node: 229.4796 deg Eccentricity: 0.0011970 Arg of perigee: 320.7935 deg Mean anomaly: 039.2377 deg Mean motion: 14.25542186 rev/day Decay rate: 2.6e-07 rev/day^2 Epoch rev: 89670 Checksum: 325
Satellite: MET-3/5 Catalog number: 21655 Epoch time: 08226.92981443 Element set: 0528 Inclination: 082.5500 deg RA of node: 063.5847 deg Eccentricity: 0.0012158 Arg of perigee: 227.6783 deg Mean anomaly: 132.3309 deg Mean motion: 13.17016523 rev/day Decay rate: 5.1e-07 rev/day^2 Epoch rev: 81718 Checksum: 297
Satellite: MET-2/21 Catalog number: 22782 Epoch time: 08226.69930525 Element set: 0224 Inclination: 082.5445 deg RA of node: 065.9494 deg Eccentricity: 0.0023690 Arg of perigee: 126.4532 deg Mean anomaly: 233.8817 deg Mean motion: 13.83629936 rev/day Decay rate: 6.2e-07 rev/day^2 Epoch rev: 75508 Checksum: 325
Satellite: OKEAN-4 Catalog number: 23317 Epoch time: 08226.76049791 Element set: 0667 Inclination: 082.5379 deg RA of node: 261.3473 deg Eccentricity: 0.0020659 Arg of perigee: 300.2909 deg Mean anomaly: 059.6252 deg Mean motion: 14.82628632 rev/day Decay rate: 2.16e-06 rev/day^2 Epoch rev: 74681 Checksum: 321
